| time (UTC) | temp F | wind direction | speed MPH | gust MPH | rain 1hr in | rain 24hr in | rain mn in | humidity % | barometer mb |
| 20260904105016 | 74 | 72 | 2.0 | 4.0 | 0.00 | 6.34 | 1.25 | 89 | 1007.1 |
| 20260904104525 | 74 | 108 | 1.0 | 2.0 | 0.00 | 6.34 | 1.25 | 89 | 1007.1 |
| 20260904104035 | 74 | 139 | 0.0 | 1.0 | 0.00 | 6.34 | 1.25 | 89 | 1007.5 |
| 20260904103542 | 74 | 139 | 0.0 | 1.0 | 0.00 | 6.34 | 1.25 | 89 | 1007.1 |
| 20260904103023 | 74 | 139 | 0.0 | 1.0 | 0.00 | 6.34 | 1.25 | 89 | 1007.3 |
| 20260904102535 | 74 | 139 | 1.0 | 1.0 | 0.00 | 6.34 | 1.25 | 89 | 1007.1 |
| 20260904102018 | 75 | 139 | 0.0 | 1.0 | 0.00 | 6.34 | 1.25 | 89 | 1007.3 |
| 20260904101549 | 74 | 139 | 1.0 | 1.0 | 0.00 | 6.34 | 1.25 | 89 | 1007.1 |
| 20260904101037 | 75 | 133 | 0.0 | 1.0 | 0.00 | 6.34 | 1.25 | 89 | 1006.7 |
| 20260904100522 | 75 | 127 | 0.0 | 1.0 | 0.00 | 6.34 | 1.25 | 89 | 1006.7 |
| 20260904100030 | 75 | 127 | 0.0 | 1.0 | 0.00 | 6.73 | 1.25 | 89 | 1006.9 |
| 20260904095535 | 75 | 157 | 0.0 | 2.0 | 0.00 | 6.73 | 1.25 | 89 | 1007.1 |
| 20260904095018 | 74 | 157 | 1.0 | 2.0 | 0.00 | 6.73 | 1.25 | 89 | 1007.3 |
| 20260904094527 | 74 | 124 | 0.0 | 3.0 | 0.00 | 6.73 | 1.25 | 89 | 1006.9 |
| 20260904094037 | 74 | 99 | 2.0 | 3.0 | 0.00 | 6.73 | 1.25 | 88 | 1006.6 |
| 20260904093521 | 74 | 136 | 1.0 | 2.0 | 0.00 | 6.73 | 1.25 | 89 | 1006.9 |
| 20260904093029 | 75 | 136 | 1.0 | 2.0 | 0.00 | 6.73 | 1.25 | 89 | 1006.7 |
| 20260904092538 | 75 | 117 | 0.0 | 1.0 | 0.04 | 6.73 | 1.25 | 89 | 1006.5 |
| 20260904092022 | 75 | 113 | 0.0 | 1.0 | 0.04 | 6.73 | 1.25 | 89 | 1006.7 |
| 20260904091528 | 74 | 96 | 0.0 | 5.0 | 0.04 | 6.73 | 1.25 | 89 | 1007.0 |
| 20260904091036 | 74 | 96 | 2.0 | 5.0 | 0.04 | 6.73 | 1.25 | 89 | 1007.1 |
| 20260904090520 | 74 | 43 | 2.0 | 4.0 | 0.04 | 6.73 | 1.25 | 89 | 1007.1 |
| 20260904090029 | 74 | 162 | 0.0 | 5.0 | 0.04 | 7.20 | 1.25 | 89 | 1007.1 |
| 20260904085601 | 74 | 106 | 1.0 | 5.0 | 0.04 | 7.20 | 1.25 | 89 | 1006.7 |
| 20260904085044 | 74 | 72 | 3.0 | 6.0 | 0.08 | 7.20 | 1.25 | 89 | 1006.5 |
| 20260904084552 | 74 | 68 | 4.0 | 6.0 | 0.08 | 7.20 | 1.25 | 89 | 1006.6 |
| 20260904084036 | 74 | 98 | 1.0 | 6.0 | 0.08 | 7.20 | 1.25 | 89 | 1007.1 |
| 20260904083541 | 75 | 86 | 4.0 | 6.0 | 0.08 | 7.20 | 1.25 | 88 | 1007.4 |
| 20260904083027 | 75 | 49 | 3.0 | 4.0 | 0.08 | 7.20 | 1.25 | 89 | 1007.3 |
| 20260904082558 | 75 | 68 | 1.0 | 4.0 | 0.08 | 7.17 | 1.24 | 89 | 1007.4 |
| 20260904082019 | 75 | 74 | 2.0 | 4.0 | 0.08 | 7.17 | 1.24 | 89 | 1007.3 |
| 20260904081550 | 75 | 172 | 1.0 | 5.0 | 0.08 | 7.17 | 1.24 | 88 | 1007.1 |
| 20260904081038 | 75 | 179 | 2.0 | 6.0 | 0.08 | 7.17 | 1.24 | 88 | 1006.8 |
| 20260904080523 | 75 | 172 | 1.0 | 6.0 | 0.08 | 7.17 | 1.24 | 88 | 1007.2 |
| 20260904080026 | 75 | 184 | 1.0 | 8.0 | 0.08 | 7.32 | 1.24 | 88 | 1006.7 |
| 20260904075535 | 75 | 191 | 2.0 | 8.0 | 0.12 | 7.32 | 1.24 | 88 | 1007.0 |
| 20260904075039 | 75 | 186 | 3.0 | 8.0 | 0.08 | 7.28 | 1.24 | 88 | 1007.4 |
| 20260904074520 | 75 | 212 | 3.0 | 6.0 | 0.08 | 7.28 | 1.24 | 88 | 1007.3 |
| 20260904074030 | 75 | 159 | 3.0 | 5.0 | 0.08 | 7.28 | 1.24 | 88 | 1007.5 |
| 20260904073602 | 75 | 184 | 2.0 | 7.0 | 0.08 | 7.28 | 1.24 | 88 | 1007.0 |
| 20260904073020 | 75 | 212 | 2.0 | 7.0 | 0.12 | 7.28 | 1.24 | 88 | 1006.7 |
| 20260904072552 | 75 | 184 | 2.0 | 12.0 | 0.08 | 7.24 | 1.23 | 89 | 1005.8 |
| 20260904072057 | 75 | 85 | 6.0 | 12.0 | 0.08 | 7.24 | 1.23 | 89 | 1005.4 |
| 20260904071519 | 75 | 85 | 2.0 | 6.0 | 0.08 | 7.24 | 1.23 | 89 | 1005.8 |
| 20260904071027 | 75 | 107 | 2.0 | 6.0 | 0.12 | 7.24 | 1.23 | 89 | 1006.0 |
| 20260904070538 | 75 | 214 | 0.0 | 4.0 | 0.12 | 7.24 | 1.23 | 89 | 1006.4 |
| 20260904070040 | 75 | 180 | 2.0 | 4.0 | 0.12 | 7.28 | 1.23 | 89 | 1007.1 |
| 20260904065529 | 75 | 175 | 1.0 | 4.0 | 0.12 | 7.24 | 1.22 | 89 | 1007.1 |
| 20260904065038 | 75 | 182 | 1.0 | 4.0 | 0.12 | 7.24 | 1.22 | 89 | 1007.2 |
| 20260904064520 | 75 | 176 | 1.0 | 3.0 | 0.16 | 7.24 | 1.22 | 89 | 1007.1 |
| 20260904064026 | 75 | 180 | 2.0 | 3.0 | 0.20 | 7.24 | 1.22 | 89 | 1007.0 |
| 20260904063536 | 75 | 158 | 1.0 | 3.0 | 0.28 | 7.24 | 1.22 | 89 | 1007.0 |
| 20260904063016 | 75 | 134 | 0.0 | 5.0 | 0.28 | 7.20 | 1.21 | 89 | 1006.9 |
| 20260904062527 | 75 | 112 | 2.0 | 5.0 | 0.31 | 7.20 | 1.21 | 89 | 1006.5 |
| 20260904062035 | 75 | 192 | 1.0 | 4.0 | 0.31 | 7.20 | 1.21 | 89 | 1007.1 |
| 20260904061517 | 75 | 146 | 1.0 | 4.0 | 0.28 | 7.17 | 1.20 | 89 | 1007.3 |
| 20260904061038 | 75 | 176 | 1.0 | 3.0 | 0.31 | 7.17 | 1.20 | 89 | 1007.1 |
| 20260904060524 | 75 | 196 | 1.0 | 3.0 | 0.31 | 7.17 | 1.20 | 89 | 1007.2 |
| 20260904060033 | 75 | 167 | 0.0 | 2.0 | 0.35 | 7.17 | 1.20 | 89 | 1007.0 |
| 20260904055542 | 75 | 181 | 0.0 | 3.0 | 0.31 | 7.13 | 1.20 | 89 | 1007.2 |
| 20260904055023 | 75 | 185 | 0.0 | 4.0 | 0.35 | 7.13 | 1.20 | 89 | 1007.1 |
| 20260904054530 | 75 | 163 | 1.0 | 4.0 | 0.35 | 7.09 | 1.19 | 89 | 1007.4 |
| 20260904054040 | 75 | 179 | 0.0 | 2.0 | 0.35 | 7.05 | 1.18 | 89 | 1007.5 |
| 20260904053524 | 75 | 179 | 1.0 | 2.0 | 0.28 | 6.97 | 1.17 | 89 | 1007.5 |
| 20260904053033 | 75 | 182 | 0.0 | 2.0 | 0.28 | 6.93 | 1.16 | 89 | 1007.4 |
| 20260904052538 | 75 | 190 | 1.0 | 2.0 | 0.24 | 6.89 | 1.15 | 89 | 1007.3 |
| 20260904052021 | 75 | 186 | 0.0 | 3.0 | 0.28 | 6.89 | 1.15 | 89 | 1007.5 |
| 20260904051531 | 75 | 186 | 0.0 | 3.0 | 0.31 | 6.89 | 1.15 | 89 | 1007.5 |
| 20260904051041 | 75 | 179 | 1.0 | 2.0 | 0.28 | 6.85 | 1.14 | 89 | 1007.5 |
| 20260904050525 | 75 | 178 | 1.0 | 1.0 | 0.31 | 6.85 | 1.14 | 89 | 1007.6 |
| 20260904050034 | 75 | 178 | 0.0 | 1.0 | 0.31 | 6.81 | 1.13 | 89 | 1007.5 |
| 20260904045516 | 75 | 178 | 0.0 | 2.0 | 0.28 | 6.77 | 1.13 | 89 | 1007.7 |
| 20260904045025 | 75 | 179 | 0.0 | 2.0 | 0.31 | 6.77 | 1.13 | 89 | 1007.5 |
| 20260904044533 | 75 | 174 | 0.0 | 1.0 | 0.28 | 6.73 | 1.12 | 89 | 1007.5 |
| 20260904044043 | 75 | 167 | 0.0 | 4.0 | 0.28 | 6.69 | 1.11 | 89 | 1007.4 |
| 20260904043525 | 75 | 249 | 2.0 | 5.0 | 0.31 | 6.69 | 1.11 | 89 | 1007.1 |
| 20260904042545 | 75 | 77 | 3.0 | 5.0 | 0.35 | 6.65 | 1.10 | 89 | 1007.2 |
| 20260904042034 | 75 | 114 | 1.0 | 3.0 | 0.35 | 6.61 | 1.09 | 89 | 1007.5 |
| 20260904041517 | 75 | 117 | 1.0 | 4.0 | 0.35 | 6.57 | 1.09 | 89 | 1007.6 |
| 20260904041048 | 75 | 76 | 2.0 | 3.0 | 0.39 | 6.57 | 1.09 | 89 | 1007.4 |
| 20260904040519 | 75 | 95 | 1.0 | 4.0 | 0.39 | 6.54 | 1.08 | 90 | 1007.5 |
| 20260904040045 | 75 | 52 | 2.0 | 4.0 | 0.43 | 6.50 | 1.07 | 90 | 1007.3 |
| 20260904035532 | 75 | 100 | 1.0 | 3.0 | 0.47 | 6.50 | 1.07 | 90 | 1007.5 |
| 20260904035103 | 74 | 82 | 1.0 | 3.0 | 0.51 | 6.46 | 1.06 | 90 | 1007.4 |
| 20260904034523 | 74 | 122 | 1.0 | 1.0 | 0.59 | 6.46 | 1.06 | 90 | 1007.5 |
| 20260904034033 | 74 | 149 | 0.0 | 1.0 | 0.63 | 6.42 | 1.06 | 90 | 1007.6 |
| 20260904033544 | 74 | 156 | 0.0 | 1.0 | 0.67 | 6.38 | 1.05 | 90 | 1007.7 |
| 20260904033024 | 74 | 167 | 0.0 | 0.0 | 0.71 | 6.34 | 1.04 | 90 | 1007.8 |
| 20260904032530 | 74 | 167 | 0.0 | 2.0 | 0.71 | 6.30 | 1.03 | 90 | 1007.8 |
| 20260904032042 | 74 | 167 | 0.0 | 2.0 | 0.71 | 6.26 | 1.02 | 90 | 1007.8 |
| 20260904031523 | 74 | 167 | 0.0 | 2.0 | 0.71 | 6.22 | 1.02 | 90 | 1007.7 |
| 20260904030520 | 74 | 171 | 0.0 | 2.0 | 0.67 | 6.14 | 1.00 | 90 | 1007.5 |
| 20260904030050 | 74 | 171 | 0.0 | 2.0 | 0.67 | 6.06 | 0.98 | 90 | 1007.5 |
| 20260904025539 | 74 | 172 | 1.0 | 2.0 | 0.67 | 6.02 | 0.98 | 90 | 1007.7 |
| 20260904025021 | 74 | 167 | 1.0 | 2.0 | 0.63 | 5.94 | 0.96 | 90 | 1007.8 |
| 20260904024530 | 74 | 167 | 0.0 | 2.0 | 0.59 | 5.87 | 0.94 | 90 | 1007.8 |
| 20260904024035 | 74 | 167 | 0.0 | 1.0 | 0.55 | 5.79 | 0.93 | 90 | 1007.8 |
| 20260904023520 | 74 | 167 | 0.0 | 4.0 | 0.51 | 5.71 | 0.91 | 90 | 1007.9 |
| 20260904023019 | 74 | 186 | 2.0 | 4.0 | 0.51 | 5.63 | 0.90 | 90 | 1007.9 |
| 20260904022529 | 74 | 184 | 0.0 | 3.0 | 0.51 | 5.59 | 0.89 | 90 | 1008.0 |
| 20260904022051 | 74 | 179 | 1.0 | 2.0 | 0.51 | 5.55 | 0.88 | 90 | 1008.0 |
| 20260904021540 | 74 | 192 | 1.0 | 2.0 | 0.51 | 5.51 | 0.87 | 90 | 1008.0 |
| 20260904021044 | 74 | 179 | 1.0 | 2.0 | 0.59 | 5.51 | 0.87 | 90 | 1007.9 |
| 20260904020531 | 74 | 179 | 1.0 | 3.0 | 0.63 | 5.47 | 0.87 | 90 | 1008.1 |
| 20260904020039 | 74 | 184 | 2.0 | 3.0 | 0.63 | 5.39 | 0.85 | 90 | 1008.1 |
| 20260904015543 | 74 | 184 | 1.0 | 2.0 | 0.67 | 5.35 | 0.84 | 90 | 1007.8 |
| 20260904014523 | 74 | 189 | 3.0 | 7.0 | 0.75 | 5.28 | 0.83 | 90 | 1007.5 |
| 20260904014053 | 74 | 181 | 2.0 | 6.0 | 0.75 | 5.24 | 0.82 | 90 | 1007.6 |
| 20260904013543 | 74 | 227 | 2.0 | 6.0 | 0.75 | 5.20 | 0.81 | 90 | 1007.6 |
| 20260904013023 | 74 | 179 | 1.0 | 2.0 | 0.71 | 5.12 | 0.80 | 90 | 1007.7 |
| 20260904012532 | 74 | 177 | 0.0 | 1.0 | 0.71 | 5.08 | 0.79 | 90 | 1007.7 |
| 20260904012039 | 74 | 176 | 0.0 | 2.0 | 0.67 | 5.04 | 0.78 | 90 | 1007.8 |
| 20260904011522 | 74 | 177 | 0.0 | 2.0 | 0.67 | 5.00 | 0.77 | 90 | 1007.9 |
| 20260904011052 | 74 | 177 | 1.0 | 2.0 | 0.59 | 4.92 | 0.76 | 90 | 1008.0 |
| 20260904010541 | 74 | 184 | 0.0 | 2.0 | 0.55 | 4.84 | 0.74 | 90 | 1008.1 |
| 20260904010043 | 74 | 137 | 0.0 | 1.0 | 0.55 | 4.76 | 0.72 | 90 | 1008.0 |
| 20260904005553 | 74 | 137 | 0.0 | 1.0 | 0.51 | 4.65 | 0.70 | 90 | 1007.9 |
| 20260904004521 | 74 | 165 | 0.0 | 1.0 | 0.51 | 4.53 | 0.68 | 90 | 1007.9 |
| 20260904004051 | 74 | 167 | 0.0 | 1.0 | 0.51 | 4.49 | 0.67 | 90 | 1007.9 |
| 20260904003543 | 74 | 166 | 0.0 | 1.0 | 0.55 | 4.45 | 0.66 | 90 | 1008.0 |
| 20260904003022 | 74 | 169 | 0.0 | 2.0 | 0.63 | 4.41 | 0.65 | 90 | 1008.0 |
| 20260904002532 | 74 | 169 | 1.0 | 2.0 | 0.67 | 4.37 | 0.65 | 90 | 1007.9 |
| 20260904002041 | 74 | 175 | 1.0 | 2.0 | 0.71 | 4.37 | 0.65 | 90 | 1008.0 |
| 20260904001524 | 74 | 150 | 0.0 | 3.0 | 0.75 | 4.33 | 0.64 | 90 | 1008.0 |
| 20260904001033 | 74 | 236 | 2.0 | 3.0 | 0.79 | 4.33 | 0.64 | 90 | 1008.0 |
| 20260904000538 | 74 | 179 | 0.0 | 2.0 | 0.79 | 4.29 | 0.63 | 90 | 1008.0 |
| 20260904000019 | 74 | 179 | 1.0 | 5.0 | 0.75 | 4.21 | 0.61 | 90 | 1008.0 |
| 20260903235529 | 74 | 203 | 1.0 | 5.0 | 0.71 | 4.13 | 0.60 | 90 | 1008.1 |
| 20260903235039 | 74 | 170 | 0.0 | 2.0 | 0.71 | 4.09 | 0.59 | 90 | 1008.0 |
| 20260903234522 | 74 | 179 | 0.0 | 2.0 | 0.63 | 4.02 | 0.57 | 90 | 1008.0 |
| 20260903234032 | 74 | 177 | 1.0 | 2.0 | 0.63 | 3.98 | 0.57 | 90 | 1008.0 |
| 20260903233543 | 74 | 179 | 0.0 | 3.0 | 0.59 | 3.90 | 0.55 | 90 | 1007.9 |
| 20260903233044 | 74 | 186 | 2.0 | 4.0 | 0.47 | 3.78 | 0.53 | 90 | 1008.0 |
| 20260903232528 | 74 | 182 | 1.0 | 4.0 | 0.43 | 3.70 | 0.51 | 90 | 1008.0 |
| 20260903232100 | 74 | 175 | 1.0 | 3.0 | 0.35 | 3.62 | 0.50 | 90 | 1008.1 |
| 20260903231521 | 74 | 198 | 1.0 | 4.0 | 0.31 | 3.58 | 0.49 | 90 | 1008.1 |
| 20260903231030 | 74 | 191 | 2.0 | 4.0 | 0.28 | 3.54 | 0.48 | 89 | 1008.1 |
| 20260903230539 | 74 | 174 | 1.0 | 2.0 | 0.24 | 3.50 | 0.47 | 90 | 1008.1 |
| 20260903230018 | 74 | 174 | 1.0 | 2.0 | 0.20 | 3.46 | 0.46 | 89 | 1008.2 |
| 20260903225517 | 74 | 174 | 0.0 | 2.0 | 0.16 | 3.43 | 0.46 | 90 | 1008.2 |
| 20260903225045 | 74 | 174 | 1.0 | 2.0 | 0.12 | 3.39 | 0.45 | 89 | 1008.2 |
| 20260903224532 | 74 | 178 | 1.0 | 2.0 | 0.12 | 3.39 | 0.45 | 89 | 1008.2 |
| 20260903224041 | 74 | 176 | 1.0 | 2.0 | 0.08 | 3.35 | 0.44 | 89 | 1008.2 |
| 20260903223525 | 74 | 176 | 1.0 | 1.0 | 0.04 | 3.31 | 0.43 | 89 | 1008.3 |
| 20260903223033 | 74 | 158 | 0.0 | 1.0 | 0.04 | 3.31 | 0.43 | 89 | 1008.3 |
| 20260903222516 | 74 | 158 | 0.0 | 2.0 | 0.00 | 3.27 | 0.43 | 90 | 1008.3 |
| 20260903222039 | 74 | 158 | 1.0 | 3.0 | 0.00 | 3.27 | 0.43 | 89 | 1008.2 |
| 20260903221528 | 74 | 177 | 0.0 | 3.0 | 0.04 | 3.27 | 0.43 | 89 | 1008.0 |
| 20260903221034 | 74 | 177 | 0.0 | 3.0 | 0.04 | 3.27 | 0.43 | 89 | 1008.1 |
| 20260903220517 | 73 | 173 | 0.0 | 2.0 | 0.08 | 3.27 | 0.43 | 89 | 1008.2 |
| 20260903220048 | 73 | 173 | 1.0 | 2.0 | 0.12 | 3.27 | 0.43 | 89 | 1008.1 |
| 20260903215538 | 73 | 169 | 0.0 | 2.0 | 0.16 | 3.27 | 0.43 | 89 | 1008.2 |
| 20260903215042 | 73 | 174 | 0.0 | 2.0 | 0.24 | 3.27 | 0.43 | 89 | 1008.2 |
| 20260903214532 | 73 | 174 | 1.0 | 2.0 | 0.24 | 3.27 | 0.43 | 89 | 1008.2 |
| 20260903214041 | 73 | 172 | 0.0 | 2.0 | 0.24 | 3.27 | 0.43 | 89 | 1008.1 |
| 20260903213546 | 73 | 172 | 1.0 | 2.0 | 0.28 | 3.27 | 0.43 | 89 | 1008.1 |
| 20260903213051 | 73 | 171 | 1.0 | 2.0 | 0.35 | 3.27 | 0.43 | 89 | 1007.9 |
| 20260903212042 | 73 | 183 | 1.0 | 3.0 | 0.43 | 3.27 | 0.43 | 89 | 1007.8 |
| 20260903211530 | 73 | 178 | 1.0 | 5.0 | 0.43 | 3.23 | 0.42 | 89 | 1007.6 |
| 20260903211041 | 73 | 194 | 1.0 | 5.0 | 0.47 | 3.23 | 0.42 | 89 | 1007.6 |
| 20260903210524 | 73 | 224 | 2.0 | 5.0 | 0.47 | 3.19 | 0.41 | 89 | 1007.5 |
| 20260903210032 | 73 | 187 | 2.0 | 5.0 | 0.47 | 3.15 | 0.40 | 89 | 1007.4 |
| 20260903205537 | 73 | 171 | 1.0 | 3.0 | 0.47 | 3.11 | 0.39 | 89 | 1007.5 |
| 20260903205020 | 73 | 174 | 1.0 | 4.0 | 0.43 | 3.03 | 0.38 | 89 | 1007.4 |
| 20260903204530 | 73 | 193 | 1.0 | 5.0 | 0.47 | 3.03 | 0.38 | 89 | 1007.3 |
| 20260903204100 | 73 | 167 | 1.0 | 6.0 | 0.47 | 2.99 | 0.37 | 89 | 1007.3 |
| 20260903203544 | 73 | 184 | 2.0 | 3.0 | 0.47 | 2.99 | 0.37 | 89 | 1007.3 |
| 20260903203032 | 73 | 177 | 1.0 | 6.0 | 0.43 | 2.91 | 0.35 | 89 | 1007.3 |
| 20260903202541 | 73 | 203 | 3.0 | 6.0 | 0.39 | 2.83 | 0.34 | 89 | 1007.3 |
| 20260903202045 | 73 | 174 | 2.0 | 4.0 | 0.51 | 2.83 | 0.34 | 89 | 1007.2 |
| 20260903201529 | 73 | 178 | 1.0 | 4.0 | 0.47 | 2.80 | 0.33 | 89 | 1007.3 |
| 20260903200532 | 73 | 184 | 0.0 | 3.0 | 0.51 | 2.72 | 0.31 | 89 | 1007.4 |
| 20260903200041 | 73 | 159 | 1.0 | 3.0 | 0.47 | 2.68 | 0.31 | 89 | 1007.5 |
| 20260903195523 | 73 | 172 | 1.0 | 3.0 | 0.47 | 2.60 | 0.29 | 89 | 1007.4 |
| 20260903195032 | 73 | 188 | 1.0 | 4.0 | 0.55 | 2.60 | 0.29 | 89 | 1007.5 |
| 20260903194600 | 73 | 205 | 1.0 | 5.0 | 0.55 | 2.56 | 0.28 | 89 | 1007.3 |
| 20260903194022 | 73 | 203 | 2.0 | 5.0 | 0.59 | 2.52 | 0.28 | 89 | 1007.5 |
| 20260903193529 | 73 | 187 | 2.0 | 4.0 | 0.71 | 2.52 | 0.28 | 89 | 1007.5 |
| 20260903193037 | 73 | 177 | 1.0 | 2.0 | 0.71 | 2.48 | 0.27 | 89 | 1007.7 |
| 20260903192541 | 73 | 174 | 1.0 | 2.0 | 0.71 | 2.40 | 0.25 | 89 | 1007.7 |
| 20260903192049 | 73 | 174 | 0.0 | 1.0 | 0.67 | 2.32 | 0.24 | 89 | 1007.9 |
| 20260903191539 | 73 | 174 | 0.0 | 2.0 | 0.75 | 2.32 | 0.24 | 89 | 1007.9 |
| 20260903191020 | 73 | 174 | 1.0 | 2.0 | 0.75 | 2.28 | 0.23 | 89 | 1007.9 |
| 20260903190529 | 73 | 174 | 0.0 | 2.0 | 0.71 | 2.20 | 0.21 | 89 | 1007.9 |
| 20260903190037 | 74 | 180 | 1.0 | 2.0 | 0.75 | 2.20 | 0.21 | 88 | 1007.8 |
| 20260903185536 | 74 | 184 | 1.0 | 4.0 | 0.71 | 2.13 | 0.20 | 88 | 1007.9 |
| 20260903185046 | 74 | 178 | 1.0 | 4.0 | 0.63 | 2.05 | 0.18 | 88 | 1008.0 |
| 20260903184534 | 74 | 176 | 2.0 | 2.0 | 0.63 | 2.01 | 0.17 | 88 | 1008.0 |
| 20260903184019 | 74 | 181 | 1.0 | 2.0 | 0.51 | 1.89 | 0.15 | 88 | 1008.1 |
| 20260903183530 | 74 | 176 | 0.0 | 4.0 | 0.47 | 1.81 | 0.13 | 88 | 1008.0 |
| 20260903183038 | 74 | 176 | 1.0 | 4.0 | 0.47 | 1.77 | 0.13 | 88 | 1007.9 |
| 20260903182541 | 74 | 169 | 0.0 | 2.0 | 0.43 | 1.69 | 0.11 | 88 | 1008.0 |
| 20260903182028 | 74 | 168 | 0.0 | 1.0 | 0.39 | 1.65 | 0.10 | 88 | 1008.0 |
| 20260903181557 | 74 | 168 | 0.0 | 6.0 | 0.35 | 1.57 | 0.09 | 88 | 1008.1 |
| 20260903181017 | 74 | 172 | 2.0 | 6.0 | 0.31 | 1.54 | 0.08 | 87 | 1008.0 |
| 20260903180530 | 74 | 190 | 2.0 | 5.0 | 0.31 | 1.50 | 0.07 | 88 | 1008.0 |
| 20260903180039 | 74 | 186 | 1.0 | 3.0 | 0.28 | 1.46 | 0.06 | 87 | 1008.0 |
| 20260903175520 | 74 | 176 | 1.0 | 2.0 | 0.24 | 1.42 | 0.06 | 87 | 1007.9 |
| 20260903175041 | 74 | 176 | 0.0 | 2.0 | 0.24 | 1.42 | 0.06 | 87 | 1008.0 |
| 20260903174521 | 74 | 173 | 1.0 | 3.0 | 0.20 | 1.38 | 0.05 | 87 | 1008.0 |
| 20260903174027 | 74 | 182 | 1.0 | 3.0 | 0.20 | 1.38 | 0.05 | 87 | 1007.9 |
| 20260903173539 | 74 | 146 | 0.0 | 2.0 | 0.20 | 1.34 | 0.04 | 87 | 1007.9 |
| 20260903173021 | 75 | 172 | 0.0 | 1.0 | 0.16 | 1.30 | 0.03 | 87 | 1007.9 |
| 20260903172532 | 75 | 172 | 0.0 | 1.0 | 0.12 | 1.26 | 0.02 | 87 | 1007.7 |
| 20260903172042 | 75 | 172 | 0.0 | 1.0 | 0.12 | 1.26 | 0.02 | 87 | 1007.8 |
| 20260903171525 | 75 | 172 | 0.0 | 2.0 | 0.08 | 1.22 | 0.02 | 87 | 1007.6 |
| 20260903171034 | 75 | 182 | 1.0 | 3.0 | 0.08 | 1.22 | 0.02 | 87 | 1007.6 |
| 20260903170517 | 75 | 136 | 0.0 | 4.0 | 0.04 | 1.18 | 0.01 | 87 | 1007.6 |
| 20260903170041 | 75 | 200 | 1.0 | 5.0 | 0.04 | 1.18 | 0.01 | 87 | 1007.5 |
| 20260903165522 | 74 | 169 | 0.0 | 2.0 | 0.04 | 1.18 | 0.01 | 88 | 1007.4 |
| 20260903165032 | 74 | 166 | 0.0 | 2.0 | 0.04 | 1.18 | 0.01 | 88 | 1007.4 |
| 20260903164515 | 74 | 153 | 0.0 | 1.0 | 0.04 | 1.18 | 0.01 | 89 | 1007.3 |
| 20260903164046 | 74 | 110 | 0.0 | 1.0 | 0.04 | 1.18 | 0.01 | 89 | 1007.3 |
| 20260903163558 | 74 | 177 | 0.0 | 1.0 | 0.00 | 1.14 | 0.00 | 89 | 1007.5 |
| 20260903163017 | 74 | 177 | 0.0 | 1.0 | 0.00 | 1.14 | 0.00 | 89 | 1007.6 |
| 20260903162520 | 74 | 177 | 0.0 | 1.0 | 0.00 | 1.14 | 0.00 | 89 | 1007.6 |
| 20260903162028 | 74 | 177 | 0.0 | 1.0 | 0.00 | 1.14 | 0.00 | 89 | 1007.7 |
| 20260903161539 | 74 | 177 | 0.0 | 1.0 | 0.00 | 1.14 | 0.00 | 89 | 1007.6 |
| 20260903161045 | 74 | 177 | 0.0 | 0.0 | 0.00 | 1.14 | 0.00 | 89 | 1007.6 |
| 20260903160537 | 74 | 177 | 0.0 | 1.0 | 0.00 | 1.14 | 0.00 | 88 | 1007.5 |
| 20260903160022 | 74 | 177 | 0.0 | 1.0 | 0.00 | 1.14 | 0.00 | 89 | 1007.5 |
| 20260903155531 | 74 | 177 | 0.0 | 1.0 | 0.00 | 1.14 | 0.00 | 89 | 1007.5 |
| 20260903155036 | 74 | 177 | 0.0 | 2.0 | 0.00 | 1.14 | 0.00 | 89 | 1007.5 |
| 20260903154525 | 74 | 177 | 0.0 | 2.0 | 0.00 | 1.14 | 0.00 | 89 | 1007.6 |
| 20260903154031 | 74 | 177 | 1.0 | 2.0 | 0.00 | 1.14 | 0.00 | 89 | 1007.7 |
| 20260903153542 | 74 | 178 | 1.0 | 2.0 | 0.00 | 1.14 | 0.00 | 89 | 1007.7 |
| 20260903153022 | 74 | 177 | 1.0 | 2.0 | 0.00 | 1.14 | 0.00 | 89 | 1007.8 |
| 20260903152534 | 74 | 177 | 0.0 | 2.0 | 0.00 | 1.14 | 0.00 | 89 | 1007.6 |
| 20260903152016 | 74 | 183 | 1.0 | 2.0 | 0.00 | 1.14 | 0.00 | 89 | 1007.7 |
| 20260903151526 | 74 | 184 | 1.0 | 2.0 | 0.00 | 1.14 | 0.00 | 89 | 1007.7 |
| 20260903151034 | 74 | 188 | 1.0 | 2.0 | 0.00 | 1.14 | 0.00 | 88 | 1007.7 |
| 20260903150517 | 74 | 172 | 1.0 | 3.0 | 0.00 | 1.14 | 0.00 | 88 | 1007.7 |
| 20260903145515 | 74 | 175 | 0.0 | 3.0 | 0.00 | 1.14 | 0.23 | 88 | 1007.7 |
| 20260903145046 | 74 | 187 | 1.0 | 3.0 | 0.00 | 1.14 | 0.23 | 88 | 1007.6 |
| 20260903144535 | 74 | 178 | 1.0 | 2.0 | 0.00 | 1.14 | 0.23 | 88 | 1007.6 |
| 20260903144018 | 74 | 176 | 0.0 | 3.0 | 0.00 | 1.14 | 0.23 | 88 | 1007.6 |
| 20260903143519 | 74 | 187 | 2.0 | 2.0 | 0.00 | 1.14 | 0.23 | 88 | 1007.7 |
| 20260903143028 | 74 | 169 | 0.0 | 1.0 | 0.00 | 1.14 | 0.23 | 88 | 1007.8 |
| 20260903142534 | 74 | 169 | 0.0 | 1.0 | 0.00 | 1.14 | 0.23 | 88 | 1007.7 |
| 20260903142018 | 74 | 169 | 0.0 | 1.0 | 0.00 | 1.14 | 0.23 | 88 | 1007.7 |
| 20260903141528 | 74 | 169 | 0.0 | 1.0 | 0.00 | 1.14 | 0.23 | 88 | 1007.7 |
| 20260903141039 | 74 | 169 | 0.0 | 1.0 | 0.00 | 1.14 | 0.23 | 88 | 1007.7 |
| 20260903140545 | 74 | 169 | 0.0 | 1.0 | 0.00 | 1.14 | 0.23 | 88 | 1007.8 |
| 20260903140053 | 74 | 179 | 0.0 | 0.0 | 0.00 | 1.14 | 0.23 | 88 | 1007.9 |
| 20260903135516 | 74 | 179 | 0.0 | 1.0 | 0.00 | 1.14 | 0.23 | 88 | 1008.1 |
| 20260903135038 | 74 | 179 | 0.0 | 1.0 | 0.00 | 1.14 | 0.23 | 88 | 1008.0 |
| 20260903134523 | 74 | 179 | 0.0 | 1.0 | 0.00 | 1.14 | 0.23 | 88 | 1008.0 |
| 20260903134032 | 74 | 179 | 0.0 | 0.0 | 0.00 | 1.14 | 0.23 | 88 | 1008.0 |
| 20260903133543 | 74 | 179 | 0.0 | 1.0 | 0.00 | 1.14 | 0.23 | 88 | 1008.1 |
| 20260903133025 | 73 | 179 | 0.0 | 2.0 | 0.00 | 1.14 | 0.23 | 88 | 1008.2 |
| 20260903132516 | 73 | 179 | 1.0 | 2.0 | 0.00 | 1.14 | 0.23 | 88 | 1008.2 |
| 20260903132025 | 73 | 179 | 0.0 | 2.0 | 0.00 | 1.14 | 0.23 | 88 | 1008.1 |
| 20260903131015 | 73 | 173 | 1.0 | 3.0 | 0.00 | 1.14 | 0.23 | 88 | 1008.1 |
| 20260903130531 | 73 | 183 | 1.0 | 3.0 | 0.00 | 1.14 | 0.23 | 88 | 1008.1 |
| 20260903130038 | 73 | 183 | 0.0 | 3.0 | 0.00 | 1.14 | 0.23 | 88 | 1008.2 |
| 20260903125519 | 73 | 185 | 1.0 | 4.0 | 0.00 | 1.14 | 0.23 | 88 | 1008.2 |
| 20260903125050 | 73 | 189 | 1.0 | 3.0 | 0.00 | 1.14 | 0.23 | 88 | 1008.3 |
| 20260903124537 | 73 | 198 | 1.0 | 3.0 | 0.00 | 1.14 | 0.23 | 88 | 1008.3 |
| 20260903124020 | 73 | 195 | 2.0 | 3.0 | 0.00 | 1.14 | 0.23 | 88 | 1008.4 |
| 20260903123519 | 74 | 177 | 0.0 | 1.0 | 0.00 | 1.14 | 0.23 | 88 | 1008.5 |
| 20260903123023 | 74 | 177 | 0.0 | 2.0 | 0.00 | 1.14 | 0.23 | 88 | 1008.5 |
| 20260903122531 | 74 | 178 | 1.0 | 2.0 | 0.00 | 1.14 | 0.23 | 88 | 1008.4 |
| 20260903121530 | 74 | 188 | 1.0 | 3.0 | 0.00 | 1.14 | 0.23 | 88 | 1008.3 |
| 20260903121101 | 74 | 194 | 2.0 | 5.0 | 0.00 | 1.14 | 0.23 | 88 | 1008.3 |
| 20260903121023 | 74 | 194 | 2.0 | 5.0 | 0.00 | 1.14 | 0.23 | 88 | 1008.3 |
| 20260903120531 | 74 | 219 | 2.0 | 5.0 | 0.00 | 1.14 | 0.23 | 88 | 1008.3 |
| 20260903120037 | 74 | 181 | 2.0 | 4.0 | 0.00 | 1.14 | 0.23 | 88 | 1008.3 |
| 20260903115540 | 74 | 338 | 2.0 | 4.0 | 0.00 | 1.14 | 0.23 | 88 | 1008.3 |
| 20260903115023 | 74 | 138 | 1.0 | 4.0 | 0.00 | 1.14 | 0.23 | 89 | 1008.2 |
| 20260903114532 | 74 | 138 | 0.0 | 3.0 | 0.00 | 1.14 | 0.23 | 89 | 1008.3 |
| 20260903114039 | 74 | 175 | 0.0 | 4.0 | 0.00 | 1.14 | 0.23 | 88 | 1008.5 |
| 20260903113523 | 74 | 174 | 1.0 | 5.0 | 0.00 | 1.14 | 0.23 | 88 | 1008.4 |
| 20260903113028 | 74 | 177 | 1.0 | 5.0 | 0.00 | 1.14 | 0.23 | 88 | 1008.4 |
| 20260903112540 | 74 | 183 | 2.0 | 5.0 | 0.04 | 1.14 | 0.23 | 88 | 1008.4 |
| 20260903112020 | 74 | 165 | 1.0 | 2.0 | 0.04 | 1.14 | 0.23 | 88 | 1008.3 |
| 20260903111530 | 74 | 171 | 0.0 | 1.0 | 0.04 | 1.14 | 0.23 | 88 | 1008.3 |
| 20260903111026 | 74 | 170 | 0.0 | 3.0 | 0.04 | 1.14 | 0.23 | 88 | 1008.3 |
| 20260903110536 | 74 | 185 | 1.0 | 3.0 | 0.08 | 1.14 | 0.23 | 88 | 1008.2 |
| 20260903110043 | 74 | 131 | 0.0 | 1.0 | 0.08 | 1.14 | 0.23 | 88 | 1008.2 |
| 20260903105523 | 74 | 160 | 0.0 | 3.0 | 0.12 | 1.14 | 0.23 | 88 | 1008.5 |